Regional Weather Roundup
Issued by NWS

Home | Current Version | Previous Version | Graphics & Text | Print | Product List | Glossary On
Versions: 1 2 3 4 5 6 7 8 9 10 11 12 13 14 15 16 17 18 19 20 21 22 23 24 25 26 27 28 29 30 31 32 33 34 35 36 37 38 39 40 41 42 43 44 45 46 47 48
000
ASUS45 KCYS 181510
RWRWY

WYOMING REGIONAL WEATHER ROUNDUP
NATIONAL WEATHER SERVICE CHEYENNE WY
900 AM MDT SAT APR 18 2015

NOTE:  "FAIR" INDICATES FEW OR NO CLOUDS BELOW 12,000 FEET
WITH NO SIGNIFICANT WEATHER AND/OR OBSTRUCTIONS TO VISIBILITY.

WYZ001-181600-
YELLOWSTONE NATIONAL PARK

CITY           SKY/WX    TMP DP  RH WIND       PRES   REMARKS
LK YELLOWSTONE   N/A     31  21  66 CALM      30.15S
W YELLOWSTONE  NOT AVBL

$$
WYZ002>013-054>058-071-098>099-181600-
NORTHERN WYOMING

CITY           SKY/WX    TMP DP  RH WIND       PRES   REMARKS
JACKSON        SUNNY     37  25  60 N12       30.10S WCI  30
CODY           FAIR      48  30  49 CALM      30.04S
GREYBULL       FAIR      47  31  53 CALM      30.02S
WORLAND        FAIR      44  34  67 SW3       30.01F
SHERIDAN       FAIR      47  36  65 N3        29.99S
BUFFALO        FAIR      49  31  49 MISG      30.00S
GILLETTE       PTSUNNY   44  42  93 S3        29.99F
HULETT         CLOUDY    50  41  71 NE3       30.01S
NEWCASTLE      DRIZZLE   43  43 100 NW5       30.00S

$$
WYZ014>020-022>026-101>103-181600-
CENTRAL WYOMING

CITY           SKY/WX    TMP DP  RH WIND       PRES   REMARKS
BIG PINEY      FAIR      35  26  69 SE5       30.06S WCI  31
PINEDALE       FAIR      34  25  69 NW6       30.05F WCI  29
DUBOIS         FAIR      41  23  48 N5        30.06S
LANDER         FAIR      41  33  73 CALM      30.02F
RIVERTON       FAIR      44  33  65 NW8       30.03F
CASPER         CLOUDY    41  39  93 NW3       29.99F
DOUGLAS        LGT RAIN  39  38  96 NW12      29.98S FOG     WCI  32

$$
WYZ021-027>030-104>119-181600-
SOUTHERN WYOMING

CITY           SKY/WX    TMP DP  RH WIND       PRES   REMARKS
EVANSTON       FAIR      38  32  79 SW6       30.08S WCI  33
KEMMERER       FAIR      37  34  87 W5        30.07S WCI  34
FORT BRIDGER   SUNNY     43  36  75 W14       30.09R
ROCK SPRINGS   FAIR      38  34  85 W6        30.04F WCI  33
DIXON          LGT SNOW  32  31  97 CALM      30.02S VSB 3/4
RAWLINS        CLOUDY    34  33  96 NW13      29.98F WCI  25
SARATOGA       SNOW      32  32 100 NW5       29.98F VSB 1/2 WCI  27
LARAMIE        LGT SNOW  29  28  96 S6        29.95S FOG     WCI  23
CHEYENNE       CLOUDY    37  32  82 N8        29.94S WCI  31
TORRINGTON     CLOUDY    45  43  93 NW6       29.92F
PINE BLUFFS    CLOUDY    37  36  93 NW6       29.95S WCI  33

$$



USA.gov is the U.S. government's official web portal to all federal, state and local government web resources and services.